Home   Weather   Corfu   Past weeks

Flag for Greece Past Weather in Corfu, Greece — Yesterday and Last 2 Weeks

70 °F

Passing clouds.

Feels Like: 70 °F
Forecast: 63 / 73 °F
Wind: 2 mph from West

Location: Kerkyra Airport

Current Time: Oct 22, 2016 at 7:20:52 PM

Latest Report: Oct 22, 2016 at 6:50 PM

Visibility: N/A

Pressure: 29.98 "Hg

Humidity: 83%

Dew Point: 64 °F

Location of CorfuLocation

Past Weather in Corfu — Graph


Corfu Temperature Yesterday

Maximum temperature yesterday: 73 °F (at 1:50 PM)
Minimum temperature yesterday: 64 °F (at 2:50 AM)
Average temperature yesterday: 68 °F

High & Low Weather Summary for the Past Weeks

High81 °F (Oct 17, 4:50 PM)100% (Oct 7, 10:50 PM)30.18 "Hg (Oct 7, 10:50 PM)
Low50 °F (Oct 13, 7:50 AM)50% (Oct 8, 3:50 PM)29.71 "Hg (Oct 11, 4:50 PM)
Average66 °F83%30.01 "Hg
* Reported Oct 7 5:20 PM — Oct 22 5:50 PM, Corfu, Weather by CustomWeather, © 2016

Note: Actual official high and low records may vary slightly from our data, if they occured in-between our weather recording intervals... More about our weather records


Corfu Weather History for the Previous 24 Hours

Scroll right to see more
Time TempWeatherWind HumidityBarometerVisibility
5:50 PM
Sat, Oct 22
73 °FScattered clouds.6 mph78%29.98 "HgN/A
5:20 PM75 °FScattered clouds.6 mph69%29.95 "HgN/A
4:50 PM75 °FScattered clouds.6 mph69%29.95 "HgN/A
4:20 PM72 °FScattered clouds.6 mph83%29.98 "HgN/A
3:50 PM72 °FScattered clouds.6 mph83%29.98 "HgN/A
3:20 PM77 °FScattered clouds.6 mph69%29.95 "HgN/A
2:50 PM77 °FScattered clouds.8 mph69%29.95 "HgN/A
2:20 PM77 °FScattered clouds.6 mph69%29.95 "HgN/A
1:50 PM77 °FScattered clouds.5 mph69%29.95 "HgN/A
1:20 PM75 °FScattered clouds.5 mph78%29.95 "HgN/A
12:50 PM73 °FScattered clouds.3 mph83%29.95 "HgN/A
12:20 PM73 °FScattered clouds.5 mph78%29.95 "HgN/A
11:50 AM72 °FScattered clouds.No wind83%29.95 "HgN/A
11:20 AM70 °FScattered clouds.No wind88%29.95 "HgN/A
10:50 AM68 °FScattered clouds.3 mph94%29.92 "HgN/A
10:20 AM64 °FScattered clouds.2 mph94%29.92 "HgN/A
9:50 AM63 °FScattered clouds.No wind100%29.92 "HgN/A
9:20 AM64 °FPassing clouds.No wind94%29.92 "HgN/A
8:50 AM63 °FPassing clouds.No wind100%29.92 "HgN/A
8:20 AM63 °FPassing clouds.No wind94%29.89 "HgN/A
7:50 AM64 °FPassing clouds.No wind94%29.89 "HgN/A
7:20 AM64 °FPartly cloudy.No wind100%29.89 "HgN/A
6:50 AM64 °FPartly cloudy.2 mph100%29.89 "HgN/A
6:20 AM66 °FLight rain. Partly cloudy.3 mph94%29.89 "HgN/A
5:50 AM66 °FLight rain. Partly cloudy.5 mph94%29.89 "HgN/A
5:20 AM68 °FThunderstorms. Partly cloudy.9 mph94%29.89 "Hg5 mi
4:50 AM68 °FThunderstorms. Partly cloudy.8 mph94%29.86 "HgN/A
4:20 AM66 °FLight rain. Mostly cloudy.12 mph100%29.86 "HgN/A
3:50 AM66 °FLight rain. Mostly cloudy.12 mph100%29.86 "HgN/A
2:50 AM68 °FLight rain. Passing clouds.13 mph94%29.89 "HgN/A
2:20 AM68 °FLight rain. Passing clouds.16 mph94%29.92 "HgN/A
1:50 AM68 °FLight rain. Passing clouds.16 mph94%29.92 "HgN/A
1:20 AM68 °FLight rain. Passing clouds.16 mph88%29.92 "HgN/A
12:50 AM68 °FPassing clouds.16 mph88%29.92 "HgN/A
12:20 AM68 °FRain. Passing clouds.23 mph88%29.92 "Hg5 mi
11:50 PM
Fri, Oct 21
68 °FLight rain. Passing clouds.23 mph88%29.92 "HgN/A
11:20 PM70 °FPassing clouds.18 mph78%29.92 "HgN/A
10:50 PM70 °FLight rain. Passing clouds.17 mph78%29.92 "HgN/A
10:20 PM70 °FLight rain. Passing clouds.16 mph78%29.95 "HgN/A
9:50 PM70 °FPassing clouds.14 mph78%29.95 "HgN/A
9:20 PM70 °FPassing clouds.13 mph78%29.95 "HgN/A
8:50 PM70 °FPassing clouds.14 mph78%29.95 "HgN/A
8:20 PM68 °FPassing clouds.13 mph88%29.95 "HgN/A
7:50 PM68 °FPassing clouds.14 mph88%29.95 "HgN/A
7:20 PM68 °FPassing clouds.14 mph83%29.92 "HgN/A
Weather by CustomWeather, © 2016

See weather overviewHow to use our weather pages